Погода в Гунэе

Россия / Забайкальский край     50°31′09″N   114°33′23″E
темп.,
°C
ветер,
м/с
пор.,
м/с
влажн.,
%
обл.,
%
осадки,
мм/ч
давл.,
гПа
погр.,
м
24 мая, вт
вт2400:00+10сз355699 0.0 1012159
03:00+8ссз366577 0.1 1015192
06:00+6ссз33730 0.0 101754
09:00+14с57415 0.0 1018661
12:00+18ссв792558 0.0 10193120
15:00+21ссв6819100 0.0 10183738
18:00+22ссв681868 0.0 10173472
21:00+17ссв112688 0.0 101811
25 мая, ср
ср2500:00+14зсз223134 0.0 102010
03:00+11зсз22321 0.0 102111
06:00+10зсз22355 0.0 102115
09:00+18зсз34275 0.0 1020390
12:00+23ссз45185 0.0 10173071
15:00+24ссз45165 0.0 10143307
18:00+25ссз35165 0.0 10113552
21:00+19с12232 0.0 101111
26 мая, чт
чт2600:00+16зсз22260 0.0 101111
03:00+14зсз22301 0.0 101010
06:00+13з22330 0.0 100910
09:00+20з23240 0.0 1008325
12:00+24зюз351711 0.0 10052933
15:00+26з56165 0.0 10013370
18:00+27юз481556 0.0 9983213
21:00+21ссз3527100 0.1 99786
27 мая, пт
пт2700:00+16з334519 0.2 99840
03:00+15сз716445 0.2 998542
06:00+13зсз815500 0.0 999776
09:00+16зсз1013380 0.0 9971575
12:00+19сз9122594 0.0 9963206
15:00+21сз101219100 0.0 9943791
18:00+20ссз9121899 0.0 9943448
21:00+14с58370 0.0 997207
28 мая, сб
сб2800:00+9зсз22610 0.0 99924
03:00+8зсз336769 0.0 100039
06:00+7ссз2469100 0.0 1001148
09:00+9с5546100 0.0 1002943
12:00+14ссз563798 0.1 10002272
15:00+16ссз5624100 0.1 9993173
18:00+16зсз6724100 0.0 9982413
21:00+12сз8124258 0.0 1000634